Погода в Броднице

Польша     53°15′59″N   19°24′53″E
темп.,
°C
ветер,
м/с
пор.,
м/с
влажн.,
%
обл.,
%
осадки,
мм/ч
давл.,
гПа
погр.,
м
19 сентября, вс
вс1923:00+8ссв5107881 0.0 1015782
02:00+7с4108138 0.0 1015341
05:00+7с41171100 0.0 1015450
08:00+9с5117573 0.0 1015677
11:00+11с686899 0.0 1015870
14:00+13с576382 0.0 10151088
17:00+12с5768100 0.0 1015906
20:00+10св497276 0.0 1016557
20 сентября, пн
пн2023:00+8с4878100 0.0 1017330
02:00+8ссв4970100 0.0 1018798
05:00+6ссв3780100 0.0 1018285
08:00+7с487099 0.0 10191055
11:00+11с695847 0.0 10191221
14:00+12с8105870 0.0 10191447
17:00+10с61062100 0.0 10201392
20:00+10ссз3766100 0.0 1021707
21 сентября, вт
вт2123:00+9с3777100 0.1 1022507
02:00+8с1383100 0.1 1022186
05:00+8ссв1382100 0.1 1023174
08:00+8св2382100 0.1 1024259
11:00+11с3568100 0.0 1024916
14:00+12сз4660100 0.1 1024972
17:00+12сз5754100 0.1 10231300
20:00+10сз3769100 0.1 1024285
22 сентября, ср
ср2223:00+9сз3780100 0.3 1024317
02:00+8зсз488749 1.3 1024278
05:00+8ссз4789100 0.3 1024278
08:00+9сз3684100 0.5 1024273
11:00+10сз3577100 0.1 1024305
14:00+12сз5663100 0.4 10221286
17:00+12ссз576986 0.5 1021859
20:00+9ссз248099 0.7 102197
23 сентября, чт
чт2323:00+9сз238299 0.0 102083
02:00+7сз22906 0.0 101811
05:00+6зсз118977 0.0 101710
08:00+9юз1281100 0.0 1016117
11:00+12юз457770 0.0 1015754
14:00+12юз477895 0.1 1012720
17:00+15зюз5960100 0.1 1009725
20:00+13зюз61271100 0.3 1007681